Regional Weather Roundup
Issued by NWS

Home | Current Version | Previous Version | Text Only | Print | Product List | Glossary Off
Versions: 1 2 3 4 5 6 7 8 9 10 11 12 13 14 15 16 17 18 19 20 21 22 23 24 25 26 27 28 29 30 31 32 33 34 35 36 37 38 39 40 41 42 43 44 45 46 47 48 49 50

000
ASUS45 KCYS 251510
RWRWY

WYOMING REGIONAL WEATHER ROUNDUP
NATIONAL WEATHER SERVICE CHEYENNE WY
800 AM MST THU DEC 25 2014

NOTE:  "FAIR" INDICATES FEW OR NO CLOUDS BELOW 12,000 FEET
WITH NO SIGNIFICANT WEATHER AND/OR OBSTRUCTIONS TO VISIBILITY.

WYZ001-251600-
YELLOWSTONE NATIONAL PARK

CITY           SKY/WX    TMP DP  RH WIND       PRES   REMARKS
LK YELLOWSTONE   N/A     16  10  77 NE10G23   29.51R WCI   4
W YELLOWSTONE  NOT AVBL

$$
WYZ002>013-054>058-071-098>099-251600-
NORTHERN WYOMING

CITY           SKY/WX    TMP DP  RH WIND       PRES   REMARKS
JACKSON        LGT SNOW  25  25 100 E5        29.41R VSB 3/4 WCI  19
CODY           CLOUDY    23  19  86 N22G32    29.64R VSB 1   WCI   8
GREYBULL       CLOUDY    30  23  75 NW18      29.57R WCI  18
WORLAND        LGT SNOW  28  26  92 N14       29.55R VSB 3/4 WCI  17
SHERIDAN       LGT SNOW  27  24  89 N9        29.72R FOG     WCI  18
BUFFALO        LGT SNOW  24  22  91 N20       29.67R FOG     WCI  10
GILLETTE       SNOW      26  24  92 N18       29.64R VSB 1/2 WCI  13
HULETT           N/A    N/A N/A N/A MISG        N/A
NEWCASTLE      CLOUDY    30  27  86 CALM      29.55R

$$
WYZ014>020-022>026-101>103-251600-
CENTRAL WYOMING

CITY           SKY/WX    TMP DP  RH WIND       PRES   REMARKS
BIG PINEY      CLOUDY    24  21  88 NE9       29.38R WCI  14
PINEDALE       SNOW      27  27 100 E5        29.40R VSB 1/4 WCI  21
DUBOIS         NOT AVBL
LANDER         SNOW      25  23  92 N9        29.52R VSB 1/2 WCI  15
RIVERTON       LGT SNOW  24  21  88 N26G36    29.51R FOG     WCI   8
CASPER         LGT SNOW  25  22  88 N14       29.53R FOG     WCI  13
DOUGLAS        LGT SNOW  28  26  92 NW6       29.54R FOG     WCI  22

$$
WYZ021-027>030-104>119-251600-
SOUTHERN WYOMING

CITY           SKY/WX    TMP DP  RH WIND       PRES   REMARKS
EVANSTON       CLOUDY    20  18  92 SW16      29.45R WCI   6
KEMMERER       CLOUDY    21  21 100 W15       29.42R WCI   8
FORT BRIDGER   CLOUDY    25  21  86 W21G29    29.46R WCI  10
ROCK SPRINGS   LGT SNOW  24  22  91 SE8       29.42R FOG     WCI  15
DIXON          CLOUDY    32  25  76 SW8       29.50S WCI  24
RAWLINS        CLOUDY    28  21  75 SW6       29.45R WCI  22
SARATOGA       CLOUDY    30  25  80 MISG      29.44S
LARAMIE        CLOUDY    32  20  61 W9        29.43R WCI  24
CHEYENNE       LGT SNOW  31  26  82 N9        29.46R WCI  23
TORRINGTON     CLOUDY    31  26  82 N18       29.49R WCI  19
PINE BLUFFS    PTSUNNY   36  28  75 N15       29.44R WCI  26

$$



USA.gov is the U.S. government's official web portal to all federal, state and local government web resources and services.